This demonstration page uses our WeatherBlox Daily Observations layout. Learn more.

Left ArrowRight Arrow

Hourly Observations for August 26, 2018

Temp ( °F °C ) Dew Point ( °F °C ) Humidity (%) Winds ( mph kmh ) Pressure ( in mb ) Visibility ( mi km ) Precip ( " mm )
12:15 am 00:15 Partly Cloudy 73 22.5 73 22.5 100 100 S 6 9 30.03 1017 7 11 0.00 0.00
12:35 am 00:35 Partly Cloudy with Mist and Fog 72 22.1 72 22.1 100 100 S 5 7 30.03 1017 5 8 0.00 0.00
12:55 am 00:55 Clear with Mist and Fog 72 22 72 22 100 100 S 5 7 30.03 1017 5 8 0.00 0.00
1:15 am 01:15 Clear with Mist and Fog 71 21.7 71 21.7 100 100 S 5 7 30.06 1018 5 8 0.00 0.00
1:35 am 01:35 Clear with Mist and Fog 71 21.6 71 21.6 100 100 S 6 9 30.06 1018 5 8 0.00 0.00
1:55 am 01:55 Clear with Mist and Fog 71 21.8 71 21.8 100 100 S 6 9 30.03 1017 5 8 0.00 0.00
2:15 am 02:15 Clear 72 22.1 72 22.1 100 100 SSW 6 9 30.03 1017 7 11 0.00 0.00
2:35 am 02:35 Clear 72 22.2 72 22.2 100 100 SW 9 15 30.03 1017 7 11 0.00 0.00
2:55 am 02:55 Clear 73 22.5 72 22.4 99 99 SW 9 15 30.03 1017 7 11 0.00 0.00
3:15 am 03:15 Clear 73 22.6 73 22.5 99 99 SW 9 15 30.03 1017 7 11 0.00 0.00
3:35 am 03:35 Clear 73 22.7 73 22.6 99 99 SW 9 15 30.03 1017 7 11 0.00 0.00
3:55 am 03:55 Mostly Cloudy 73 23 73 22.8 99 99 SW 9 15 30.03 1017 7 11 0.00 0.00
4:15 am 04:15 Partly Cloudy 73 22.9 73 22.7 99 99 SW 10 17 30.03 1017 7 11 0.00 0.00
4:35 am 04:35 Partly Cloudy 73 22.7 73 22.6 99 99 SW 9 15 30.03 1017 7 11 0.00 0.00
4:55 am 04:55 Partly Cloudy 73 22.8 73 22.7 99 99 SW 8 13 30.03 1017 7 11 0.00 0.00
5:15 am 05:15 Partly Cloudy 73 22.8 73 22.7 99 99 SW 8 13 30.03 1017 7 11 0.00 0.00
5:35 am 05:35 Partly Cloudy 73 23 73 22.8 99 99 WSW 8 13 30.03 1017 7 11 0.00 0.00
5:55 am 05:55 Partly Cloudy 73 22.7 73 22.7 100 100 SW 9 15 30.03 1017 7 11 0.00 0.00
6:15 am 06:15 Partly Cloudy with Mist and Fog 73 22.5 73 22.5 100 100 WSW 8 13 30.03 1017 5 8 0.00 0.00
6:35 am 06:35 Partly Cloudy with Mist and Fog 73 22.5 73 22.5 100 100 WSW 7 11 30.03 1017 5 8 0.00 0.00
6:55 am 06:55 Clear with Mist and Fog 72 22.3 72 22.3 100 100 WSW 8 13 30.03 1017 5 8 0.00 0.00
7:15 am 07:15 Sunny with Mist and Fog 72 22.2 72 22.2 100 100 SW 9 15 30.03 1017 4 6 0.00 0.00
7:35 am 07:35 Sunny with Mist and Fog 72 22.3 72 22.3 100 100 WSW 8 13 30.03 1017 4 6 0.00 0.00
7:55 am 07:55 Sunny with Mist and Fog 73 22.5 73 22.5 100 100 SW 8 13 30.03 1017 4 6 0.00 0.00
8:15 am 08:15 Sunny with Mist and Fog 73 22.8 73 22.7 99 99 WSW 7 11 30.06 1018 5 8 0.00 0.00
8:35 am 08:35 Sunny with Mist and Fog 74 23.3 74 23.1 99 99 WSW 8 13 30.06 1018 5 8 0.00 0.00
8:55 am 08:55 Sunny with Mist and Fog 74 23.6 74 23.2 98 98 WSW 9 15 30.06 1018 5 8 0.01 0.25
9:15 am 09:15 Sunny with Mist and Fog 75 24.1 74 23.6 97 97 SW 10 17 30.06 1018 5 8 0.00 0.00
9:35 am 09:35 Partly Cloudy with Mist and Fog 76 24.6 75 23.8 95 95 WSW 9 15 30.06 1018 5 8 0.00 0.00
9:55 am 09:55 Partly Cloudy with Mist and Fog 77 25.2 75 24.1 94 94 WSW 10 17 30.06 1018 5 8 0.00 0.00
10:15 am 10:15 Partly Cloudy 78 25.8 76 24.3 91 91 WSW 10 17 30.06 1018 7 11 0.00 0.00
10:35 am 10:35 Partly Cloudy 79 26.3 76 24.6 90 90 WSW 10 17 30.06 1018 7 11 0.00 0.00
10:55 am 10:55 Sunny 80 26.7 76 24.6 88 88 WSW 10 17 30.06 1018 7 11 0.00 0.00
11:15 am 11:15 Partly Cloudy 80 26.9 76 24.6 87 87 W 10 17 30.09 1019 7 11 0.00 0.00
11:35 am 11:35 Mostly Cloudy 81 27.3 77 25 87 87 WSW 6 9 30.09 1019 7 11 0.00 0.00
11:55 am 11:55 Partly Cloudy 82 27.9 77 25.2 85 85 WSW 6 9 30.06 1018 7 11 0.00 0.00
12:15 pm 12:15 Sunny 83 28.5 77 25.1 82 82 W 10 17 30.06 1018 10 16 0.00 0.00
12:35 pm 12:35 Sunny 84 28.8 78 25.6 83 83 SW 8 13 30.06 1018 7 11 0.00 0.00
12:55 pm 12:55 Sunny 84 29.1 77 25.2 80 80 SW 8 13 30.06 1018 7 11 0.00 0.00
1:15 pm 13:15 Sunny 85 29.4 78 25.4 79 79 SW 9 15 30.06 1018 10 16 0.00 0.00
1:35 pm 13:35 Sunny 85 29.6 78 25.4 78 78 WSW 10 17 30.06 1018 10 16 0.00 0.00
1:55 pm 13:55 Partly Cloudy 86 29.9 78 25.6 78 78 SSW 10 17 30.06 1018 10 16 0.00 0.00
2:15 pm 14:15 Partly Cloudy 85 29.7 78 25.3 77 77 WSW 8 13 30.06 1018 10 16 0.00 0.00
2:35 pm 14:35 Partly Cloudy 87 30.5 78 25.3 74 74 SW 10 17 30.06 1018 10 16 0.00 0.00
2:55 pm 14:55 Partly Cloudy 87 30.7 76 24.6 70 70 WSW 9 15 30.06 1018 10 16 0.00 0.00
3:15 pm 15:15 Sunny 87 30.6 77 25 72 72 SW 7 11 30.06 1018 10 16 0.00 0.00
3:35 pm 15:35 Partly Cloudy 87 30.7 76 24.3 69 69 WSW 10 17 30.03 1017 10 16 0.00 0.00
3:55 pm 15:55 Partly Cloudy 87 30.4 77 24.9 72 72 SW 13 20 30.03 1017 10 16 0.00 0.00
4:15 pm 16:15 Partly Cloudy 87 30.7 77 24.9 71 71 SW 8 13 30.03 1017 10 16 0.00 0.00
4:35 pm 16:35 Sunny 87 30.6 77 25 72 72 SW 10 17 30.03 1017 10 16 0.00 0.00
4:55 pm 16:55 Partly Cloudy 86 30.1 76 24.6 72 72 SW 8 13 30.03 1017 10 16 0.00 0.00
5:15 pm 17:15 Sunny 86 30.1 76 24.6 72 72 SW 10 17 30.03 1017 10 16 0.00 0.00
5:35 pm 17:35 Sunny 86 29.9 76 24.4 72 72 SW 10 17 30.03 1017 10 16 0.00 0.00
5:55 pm 17:55 Sunny 84 28.7 75 24 76 76 SSW 8 13 30.03 1017 10 16 0.00 0.00
6:15 pm 18:15 Sunny 85 29.7 77 25.1 76 76 SSW 6 9 30.03 1017 10 16 0.00 0.00
6:35 pm 18:35 Sunny 85 29.3 75 24.1 74 74 SSW 12 19 30.03 1017 10 16 0.00 0.00
6:55 pm 18:55 Sunny 83 28.6 75 23.7 75 75 SW 7 11 30.03 1017 10 16 0.00 0.00
7:15 pm 19:15 Partly Cloudy 82 27.6 76 24.5 83 83 SW 8 13 30.03 1017 10 16 0.00 0.00
7:35 pm 19:35 Partly Cloudy 81 27.3 76 24.6 85 85 SW 8 13 30.03 1017 10 16 0.00 0.00
7:55 pm 19:55 Sunny 80 26.5 76 24.5 89 89 SSW 7 11 30.03 1017 10 16 0.00 0.00
8:15 pm 20:15 Sunny 79 26.3 76 24.3 89 89 SSW 7 11 30.03 1017 7 11 0.00 0.00
8:35 pm 20:35 Clear 78 25.8 76 24.3 91 91 S 5 7 30.03 1017 7 11 0.00 0.00
8:55 pm 20:55 Clear 77 25 76 24.2 95 95 S 5 7 30.03 1017 7 11 0.00 0.00
9:15 pm 21:15 Clear 77 25 76 24.2 95 95 S 6 9 30.03 1017 7 11 0.00 0.00
9:35 pm 21:35 Clear 77 25 75 24.1 95 95 S 6 9 30.03 1017 7 11 0.00 0.00
9:55 pm 21:55 Clear 76 24.6 75 24 96 96 S 6 9 30.03 1017 7 11 0.00 0.00
10:15 pm 22:15 Clear 76 24.5 75 24 97 97 S 5 7 30.03 1017 7 11 0.00 0.00
10:35 pm 22:35 Clear 76 24.3 75 23.7 96 96 S 6 9 30.03 1017 7 11 0.00 0.00
10:55 pm 22:55 Clear 76 24.3 75 23.8 97 97 S 6 9 30.03 1017 7 11 0.00 0.00
11:15 pm 23:15 Clear 75 24 75 23.7 98 98 S 6 9 30.03 1017 7 11 0.00 0.00
11:35 pm 23:35 Clear 75 24 75 23.7 98 98 S 7 11 30.03 1017 7 11 0.00 0.00
11:55 pm 23:55 Clear 75 24.1 75 23.7 98 98 S 7 11 30.03 1017 7 11 0.00 0.00

Powered by AerisWeather